Weather History for Eastover, SC

Change the Weather History Date:

Tuesday, October 30, 2012

  Actual Average Record
Temperature  
Mean Temperature 53 °F -  
Max Temperature 60 °F 70 °F 84 °F (1998)
Min Temperature 47 °F 49 °F 31 °F (2008)
Degree Days  
Heating Degree Days 12    
Growing Degree Days 3 (Base 50)    
Moisture  
Dew Point 29 °F    
Average Humidity 42    
Maximum Humidity 53    
Minimum Humidity 30    
Precipitation  
Precipitation 0.00 in - - ()
Sea Level Pressure  
Sea Level Pressure 29.59 in    
Wind  
Wind Speed 13 mph (West)    
Max Wind Speed 21 mph    
Max Gust Speed 28 mph    
Visibility 10 miles    
Events      
Averages and records for this station are not official NWS values.
T = Trace of Precipitation, MM = Missing Value Source: NWS Daily Summary

Daily Weather History Graph

Daily Weather History Graph

Search for Another Location

Airport:

Trip Planner

Search our weather history database for the weather conditions in past years. The results will help you decide how hot, cold, wet, or windy it might be!

Date:

Astronomy

Oct. 30, 2012 Rise Set
Actual Time 7:41 AM EDT 6:31 PM EDT
Civil Twilight 7:15 AM EDT 6:57 PM EDT
Nautical Twilight 6:45 AM EDT 7:27 PM EDT
Astronomical Twilight 6:16 AM EDT 7:56 PM EDT
Moon 7:04 PM EDT (10/30) 8:23 AM EDT (10/30)
Length of Visible Light 11h 42m
Length of Day
10h 50m
Full, 99% of the Moon is Illuminated
Oct 30
Full
Nov 6
Last Quarter
Nov 13
New
Nov 20
First Quarter
Nov 28
Full

Hourly Weather History & Observations

Time (EDT) Temp. Dew Point Humidity Pressure Visibility Wind Dir Wind Speed Gust Speed Precip Events Conditions
12:55 AM 50.7 °F 29.5 °F 44% 29.56 in 10.0 mi West 13.8 mph 25.3 mph N/A   Partly Cloudy
1:55 AM 48.4 °F 30.6 °F 50% 29.55 in 10.0 mi West 12.7 mph - N/A   Overcast
2:55 AM 47.8 °F 31.5 °F 53% 29.53 in 10.0 mi West 10.4 mph - N/A   Mostly Cloudy
3:55 AM 48.7 °F 30.2 °F 49% 29.52 in 10.0 mi West 12.7 mph - N/A   Partly Cloudy
4:55 AM 48.7 °F 28.9 °F 46% 29.52 in 10.0 mi West 10.4 mph - N/A   Overcast
5:55 AM 48.2 °F 27.5 °F 45% 29.52 in 10.0 mi West 15.0 mph 20.7 mph N/A   Overcast
6:55 AM 47.7 °F 28.6 °F 48% 29.53 in 10.0 mi West 13.8 mph - N/A   Mostly Cloudy
7:55 AM 47.8 °F 27.7 °F 46% 29.55 in 10.0 mi West 10.4 mph - N/A   Mostly Cloudy
8:55 AM 48.4 °F 27.7 °F 45% 29.56 in 10.0 mi West 10.4 mph - N/A   Overcast
9:55 AM 50.2 °F 29.7 °F 45% 29.56 in 10.0 mi WSW 10.4 mph - N/A   Overcast
10:55 AM 52.7 °F 30.9 °F 43% 29.56 in 10.0 mi West 15.0 mph 19.6 mph N/A   Overcast
11:55 AM 54.9 °F 30.9 °F 40% 29.57 in 10.0 mi West 13.8 mph 21.9 mph N/A   Overcast
12:55 PM 56.3 °F 30.0 °F 37% 29.56 in 10.0 mi West 16.1 mph - N/A   Overcast
1:55 PM 56.5 °F 28.9 °F 35% 29.55 in 10.0 mi West 15.0 mph 24.2 mph N/A   Overcast
2:55 PM 58.3 °F 28.0 °F 32% 29.55 in 10.0 mi West 20.7 mph 25.3 mph N/A   Overcast
3:55 PM 59.4 °F 27.5 °F 30% 29.56 in 10.0 mi West 15.0 mph 23.0 mph N/A   Mostly Cloudy
4:55 PM 55.8 °F 27.7 °F 34% 29.58 in 10.0 mi West 13.8 mph 27.6 mph N/A   Mostly Cloudy
5:55 PM 54.5 °F 28.9 °F 38% 29.60 in 10.0 mi West 16.1 mph 26.5 mph N/A   Mostly Cloudy
6:55 PM 53.2 °F 29.3 °F 40% 29.64 in 10.0 mi West 15.0 mph 20.7 mph N/A   Mostly Cloudy
7:55 PM 53.4 °F 30.0 °F 41% 29.67 in 10.0 mi West 13.8 mph 21.9 mph N/A   Overcast
8:55 PM 52.9 °F 29.8 °F 41% 29.68 in 10.0 mi WNW 16.1 mph 20.7 mph N/A   Overcast
9:55 PM 52.7 °F 28.9 °F 40% 29.71 in 10.0 mi WNW 10.4 mph - N/A   Overcast
10:55 PM 51.6 °F 30.6 °F 45% 29.72 in 10.0 mi WSW 5.8 mph - N/A   Overcast
11:55 PM 49.5 °F 29.3 °F 46% 29.71 in 10.0 mi West 6.9 mph - N/A   Overcast